Tracking 23752 objects as of 23-Oct-2021
HD Live streaming from Space Station
objects crossing your sky now

SL-8 DEB

Track SL-8 DEB now!
10-day predictions


NORAD ID: 39840
Int'l Code: 1991-009DY
Perigee: 997.4 km
Apogee: 1,189.7 km
Inclination: 73.8 °
Period: 107.0 minutes
Semi major axis: 7464 km
RCS: 0.0175 m2 (small)
Launch date: February 12, 1991
Source: Commonwealth of Independent States (former USSR) (CIS)
Launch site: PLESETSK MISSILE AND SPACE COMPLEX (PKMTR)

Note: This is SATELLITE DEBRIS
aabbcc
Your satellite tracking list
Your tracking list is empty




NASA's NSSDC Master Catalog

Two Line Element Set (TLE):
1 39840U 91009DY  21288.91664500  .00003946  00000-0  63026-2 0  9996
2 39840  73.8101 340.5364 0128817   5.1555 170.0605 13.46151644363106
Source of the keplerian elements: AFSPC